TIME,DELAY(SENSOR),PRES,OXYGEN,RAWTEMP,T(OPTODE),TCPHASE,FLUOR,BETA(BETA700),BETA(BETA412),BETA(BETA440),CDOM,C(CSC),ED(ED412.40),ED(ED444.00),ED(ED489.70),ED(ED554.30),LU(LU411.80),LU(LU443.40),LU(LU489.60),LU(LU554.10),COMP,TILTX,TILTY,CHECK
1373860938,5811,833.8300170898438000,44.6903686523437500,660.7213134765625000,4.6042227745056150,54.3083992004394500,53,99,83,79,79,15405,2147749659,2147425069,2148012708,2147873334,2147638198,2147055497,2148257755,2147191460,2474,4,13,65226
1373864534,5809,903.6900024414062000,48.5167808532714840,666.4152832031250000,4.4165401458740230,53.8328590393066400,53,98,87,79,79,15404,2147754944,2147425444,2148010797,2147876662,2147640713,2147053714,2148256502,2147197641,3159,4,13,54092
1373868134,5805,912.0900268554688000,48.0925903320312500,667.0753173828125000,4.3947639465332030,53.8989181518554700,52,98,85,79,80,15405,2147755648,2147425472,2148012516,2147873417,2147643520,2147053604,2148259620,2147194925,3577,4,13,28074
1373871734,5805,929.2299804687500000,48.8011703491210940,670.3737792968750000,4.2858471870422360,53.8410682678222660,52,100,86,81,79,15404,2147754313,2147425115,2148007515,2147875520,2147640173,2147054582,2148257782,2147196717,257,4,13,20664
1373875334,5808,939.5999755859375000,48.7076606750488300,670.0211181640625000,4.2975029945373535,53.8481712341308600,53,98,83,79,78,15405,2147753042,2147425097,2148011172,2147877860,2147639881,2147056073,2148257252,2147193161,234,4,13,22424
1373878934,5809,932.4000244140625000,48.8890304565429700,670.5288696289062000,4.2807250022888180,53.8265304565429700,51,97,86,79,79,15399,2147753956,2147424448,2148013741,2147875008,2147638089,2147056466,2148259712,2147197833,3315,4,13,22202
1373882534,5810,947.3099975585938000,50.1193008422851560,674.9619140625000000,4.1341481208801270,53.7141609191894500,53,97,84,79,80,15402,2147756928,2147424621,2148010112,2147878500,2147640466,2147053979,2148259986,2147194733,3360,4,13,62144
1373886134,5811,958.7899780273438000,50.3077812194824200,675.7670288085938000,4.1075019836425780,53.7027397155761700,53,97,81,79,80,15404,2147753709,2147426852,2148013366,2147878400,2147641764,2147052644,2148259282,2147192201,3438,4,13,9997
1373889734,5808,963.6400146484375000,50.1070098876953100,675.6752929687500000,4.1105380058288570,53.7269096374511700,52,99,86,77,80,15403,2147756251,2147425097,2148009115,2147875958,2147640310,2147050377,2148264768,2147194989,3000,4,13,16110
1373893334,5810,1000.0000000000000000,50.8383102416992200,677.3212280273438000,4.0560441017150880,53.6437416076660160,52,100,83,79,79,15399,2147754861,2147424118,2148011273,2147876077,2147641572,2147049216,2148258368,2147185810,280,4,13,19296
1373896934,5807,996.6699829101562000,50.6586990356445300,676.9033813476562000,4.0698809623718260,53.6636314392089840,52,98,87,79,79,15404,2147754523,2147422564,2148013001,2147872905,2147643748,2147049664,2148262464,2147195638,3482,4,13,1590
1373900534,5809,998.9199829101562000,51.2161407470703100,677.4595947265625000,4.0514621734619140,53.5976600646972660,52,97,86,78,79,15404,2147751826,2147423012,2148012059,2147874459,2147642651,2147049435,2148259849,2147198372,3488,4,13,31676
1373904134,5809,1000.9799804687500000,51.0504608154296900,677.3496704101562000,4.0550990104675290,53.6200599670410160,52,99,85,79,80,15404,2147754614,2147424109,2148011812,2147875885,2147643721,2147054363,2148260873,2147195172,442,4,13,25112
1373907734,5810,1000.4400024414062000,50.9491195678710940,677.5007934570312000,4.0500979423522950,53.6353416442871100,52,99,86,78,79,15399,2147755474,2147425728,2148007899,2147873792,2147642057,2147048128,2148260388,2147192932,3110,4,13,57838
1373911334,5807,1014.3200073242188000,51.1301994323730500,676.7874145507812000,4.0737209320068360,53.6004600524902340,53,98,85,78,80,15391,2147755245,2147426642,2148011355,2147870784,2147638244,2147052937,2148261302,2147196352,3041,4,13,61158
1373914934,5810,1013.8900146484375000,50.3237609863281250,675.6452026367188000,4.1115341186523440,53.6985893249511700,52,97,85,81,79,15387,2147755977,2147424640,2148010422,2147873097,2147644041,2147054619,2148260635,2147199049,3502,4,13,5625
1373918534,5806,1008.8599853515625000,49.9144706726074200,675.8925170898438000,4.1033477783203125,53.7537117004394500,53,99,84,78,78,15383,2147755785,2147424566,2148010806,2147875547,2147642066,2147052772,2148260361,2147194880,230,4,13,39312
1373922134,5756,1003.2199707031250000,50.3563804626464840,677.3656005859375000,4.0545749664306640,53.7113189697265600,52,97,82,80,81,15386,2147757942,2147421403,2148012013,2147871753,2147642962,2147051465,2148260233,2147197440,3238,4,13,20623
1373925734,5809,1010.8300170898438000,50.6074485778808600,677.1702880859375000,4.0610408782958980,53.6740913391113300,52,98,87,79,79,15385,2147753691,2147424658,2148011072,2147873801,2147639332,2147048356,2148260992,2147197376,3565,4,13,58124
1373929334,5808,1010.2000122070312000,50.1967811584472660,676.8538818359375000,4.0715198516845700,53.7301406860351560,53,100,85,79,80,15385,2147759844,2147424448,2148012461,2147875876,2147642304,2147050614,2148258806,2147201270,3395,4,13,42352
1373932934,5809,1004.6500244140625000,50.2558784484863300,676.9013061523438000,4.0699501037597660,53.7226791381835940,52,98,84,78,80,15383,2147759158,2147425344,2148012836,2147871862,2147639478,2147052269,2148260909,2147195346,3526,4,13,59193
1373936534,5808,997.7899780273438000,50.6413917541503900,678.3762207031250000,4.0210990905761720,53.6902008056640600,52,99,88,80,80,15381,2147755757,2147426258,2148011501,2147873764,2147638820,2147052973,2148259574,2147198811,3512,4,13,54121
1373940134,5809,1004.9799804687500000,50.8175582885742200,678.7006835937500000,4.0103468894958500,53.6677207946777340,52,99,86,78,80,15383,2147754532,2147424841,2148013942,2147874093,2147641490,2147052937,2148262400,2147194450,3496,4,13,50604
1373943734,5811,1003.2600097656250000,50.9520797729492200,678.9168701171875000,4.0031828880310060,53.6533508300781250,53,101,85,78,78,15384,2147756918,2147425563,2148011648,2147874358,2147639780,2147051904,2148264347,2147197824,377,4,13,32646
1373947334,5810,1006.2199707031250000,51.2762718200683600,678.2733764648438000,4.0245041847229000,53.5984306335449200,52,98,83,79,79,15376,2147755382,2147423524,2148011931,2147875739,2147642541,2147048704,2148261604,2147192393,275,4,13,10257
1373950934,5807,1011.2999877929688000,50.9981994628906250,677.2559204101562000,4.0582079887390140,53.6279716491699200,52,100,84,78,78,15336,2147755300,2147423506,2148011282,2147876022,2147639963,2147051337,2148261184,2147194816,227,3,13,37627
1373954534,5807,1006.0100097656250000,50.5913085937500000,677.8046264648438000,4.0400328636169430,53.6899490356445300,53,99,88,79,81,15333,2147757595,2147423552,2148011584,2147874441,2147642825,2147051181,2148256667,2147194358,3097,3,13,27196
1373958134,5813,1013.6900024414062000,50.4609298706054700,677.3186035156250000,4.0561308860778810,53.7008209228515600,52,99,85,78,79,15335,2147758966,2147425115,2148010660,2147872768,2147643501,2147053348,2148263561,2147195913,32,4,13,37166
1373961734,5812,1014.6699829101562000,50.2963294982910160,677.2764892578125000,4.0575261116027830,53.7219085693359400,52,99,87,79,79,15336,2147754148,2147425362,2148010907,2147875044,2147644608,2147051739,2148258075,2147196196,155,4,13,2258
1373965334,5809,1011.8099975585938000,50.7212982177734400,677.8151245117188000,4.0396862030029300,53.6719207763671900,52,97,84,77,78,15333,2147759588,2147421449,2148012388,2147876269,2147641298,2147057472,2148258358,2147198592,3588,4,13,30775
1373968934,5808,1002.9099731445312000,50.5623283386230500,678.4033203125000000,4.0202031135559080,53.6954193115234400,53,99,85,79,80,15333,2147757851,2147427446,2148015186,2147874816,2147643913,2147050496,2148257417,2147195437,3368,4,13,39233
1373972534,5807,1006.8599853515625000,50.9778785705566400,678.3806152343750000,4.0209560394287110,53.6443595886230500,53,100,86,78,80,15332,2147757860,2147424795,2148011556,2147876068,2147639149,2147049042,2148263378,2147198793,3579,4,14,54631
1373976134,5811,1005.0999755859375000,51.1159210205078100,677.8621215820312000,4.0381298065185550,53.6181907653808600,53,99,88,78,79,15336,2147754989,2147423369,2148012836,2147873234,2147639341,2147050569,2148257371,2147194660,3449,4,13,57462
1373979734,5809,1009.5100097656250000,51.3213996887207000,678.2938232421875000,4.0238318443298340,53.5960693359375000,52,101,84,79,78,15335,2147757476,2147423387,2148013485,2147876745,2147641124,2147052635,2148261878,2147194980,175,4,13,24745
1373983334,5810,1006.0999755859375000,50.7914314270019500,678.4940185546875000,4.0171990394592285,53.6683311462402340,53,99,86,78,79,15332,2147756269,2147427264,2148010395,2147874331,2147641280,2147052205,2148261577,2147197138,302,4,13,32013
1373986934,5809,1012.1599731445312000,50.8418197631835940,677.8972778320312000,4.0369639396667480,53.6545715332031250,52,98,88,78,79,15332,2147757019,2147422235,2148010386,2147872713,2147641627,2147053641,2148262070,2147194898,90,4,13,15688
1373990534,5810,1013.8699951171875000,51.0878105163574200,677.2042236328125000,4.0599188804626465,53.6097412109375000,51,98,83,78,80,15329,2147754925,2147426166,2148010432,2147874477,2147641106,2147050441,2148259520,2147193298,140,4,13,58607
1373994134,5810,1011.4899902343750000,50.8322486877441400,678.0490722656250000,4.0319371223449710,53.6561698913574200,53,97,87,78,80,15332,2147754249,2147423232,2148011538,2147873856,2147643090,2147051273,2148262098,2147192731,101,4,13,62411
1373997734,5808,1021.6400146484375000,50.9765205383300800,677.3828125000000000,4.0540051460266110,53.6305694580078100,52,98,89,79,80,15333,2147758272,2147422537,2148010614,2147874230,2147643099,2147052132,2148258066,2147196150,213,4,13,15491
1374001334,5805,1019.2299804687500000,50.0717391967773440,676.4077758789062000,4.0862898826599120,53.7383003234863300,52,98,89,78,80,15330,2147751853,2147425453,2148010843,2147876836,2147640941,2147054564,2148258185,2147195748,3581,4,13,50226
1374004934,5809,1015.4099731445312000,49.5656890869140600,676.3629150390625000,4.0877761840820310,53.8083496093750000,51,98,88,79,80,15331,2147753590,2147423808,2148014857,2147876306,2147643721,2147056018,2148259529,2147194038,3443,4,13,31726
1374005456,5805,1015.9899902343750000,49.6311607360839840,676.5526733398438000,4.0814929008483890,53.8012695312500000,54,98,88,78,79,15390,2147755922,2147424201,2148011483,2147876032,2147641307,2147050176,2148260068,2147198966,175,4,13,52987
